TKY87T VGHS-VOBG

Flight info

Callsign TKY87T
Flight time 2h 32m
Altitude 34000
Route IKOGU A462 CEA Q11 SADGU A465 VVZ W47 BBZ W153 TELUV Q21 BIA
Aircraft B738/M-SDE2E3FGHIRWXY/LB1

Departure

Time 2026-05-05 14:10
Airport Hazrat Shahjalal International Airport (VGHS)

Arrival

Time 2026-05-05 16:43
Airport HAL Airport (VOBG)
Time Latitude Longitude Altitude Speed Heading
2026-05-05 13:48 23.84631 90.40519 35 ft 0 kts 54°
2026-05-05 13:57 23.84631 90.40518 35 ft 1 kts 54°
2026-05-05 13:58 23.84616 90.40497 34 ft 4 kts 50°
2026-05-05 13:58 23.84598 90.40476 33 ft 4 kts 41°
2026-05-05 13:58 23.84576 90.40459 34 ft 4 kts 18°
2026-05-05 13:58 23.84556 90.40458 35 ft 1 kts 326°
2026-05-05 13:59 23.84555 90.40458 31 ft 0 kts 326°
2026-05-05 14:01 23.84576 90.40443 35 ft 5 kts 326°
2026-05-05 14:01 23.84603 90.40422 34 ft 5 kts 324°
2026-05-05 14:02 23.84628 90.40399 35 ft 5 kts 305°
2026-05-05 14:02 23.84633 90.40349 35 ft 9 kts 298°
2026-05-05 14:02 23.84661 90.40279 32 ft 12 kts 247°
2026-05-05 14:02 23.84648 90.40216 35 ft 5 kts 290°
2026-05-05 14:03 23.84669 90.40185 34 ft 6 kts 313°
2026-05-05 14:03 23.84705 90.40153 35 ft 8 kts 324°
2026-05-05 14:03 23.84767 90.40104 35 ft 14 kts 323°
2026-05-05 14:03 23.84864 90.40028 35 ft 20 kts 324°
2026-05-05 14:04 23.84975 90.39939 35 ft 20 kts 324°
2026-05-05 14:04 23.85085 90.39852 35 ft 19 kts 324°
2026-05-05 14:04 23.85097 90.39843 35 ft 19 kts 324°
2026-05-05 14:06 23.85199 90.39761 35 ft 19 kts 324°
2026-05-05 14:06 23.85302 90.39680 35 ft 18 kts 324°
2026-05-05 14:07 23.85401 90.39601 35 ft 17 kts 324°
2026-05-05 14:07 23.85497 90.39525 35 ft 17 kts 324°
2026-05-05 14:07 23.85589 90.39452 35 ft 16 kts 324°
2026-05-05 14:07 23.85677 90.39381 35 ft 15 kts 324°
2026-05-05 14:08 23.85759 90.39310 35 ft 15 kts 302°
2026-05-05 14:08 23.85730 90.39214 35 ft 14 kts 235°
2026-05-05 14:08 23.85673 90.39131 35 ft 14 kts 234°
2026-05-05 14:08 23.85620 90.39049 35 ft 13 kts 234°
2026-05-05 14:09 23.85568 90.38970 33 ft 13 kts 234°
2026-05-05 14:09 23.85511 90.38899 34 ft 12 kts 218°
2026-05-05 14:09 23.85429 90.38911 34 ft 17 kts 142°
2026-05-05 14:09 23.85202 90.39091 33 ft 72 kts 144°
2026-05-05 14:10 23.84614 90.39557 36 ft 135 kts 144°
2026-05-05 14:10 23.83711 90.40279 121 ft 180 kts 144°
2026-05-05 14:10 23.82687 90.41065 899 ft 178 kts 145°
2026-05-05 14:10 23.81679 90.41857 1694 ft 179 kts 145°
2026-05-05 14:11 23.80664 90.42656 2406 ft 181 kts 146°
2026-05-05 14:11 23.79634 90.43461 3111 ft 183 kts 149°
2026-05-05 14:11 23.78386 90.43861 3513 ft 201 kts 184°
2026-05-05 14:11 23.76994 90.43464 3722 ft 222 kts 209°
2026-05-05 14:12 23.75863 90.42245 3944 ft 238 kts 235°
2026-05-05 14:12 23.74883 90.40743 4387 ft 247 kts 234°
2026-05-05 14:12 23.73864 90.39212 4943 ft 251 kts 234°
2026-05-05 14:12 23.72833 90.37673 5590 ft 252 kts 235°
2026-05-05 14:13 23.71788 90.36118 5966 ft 256 kts 235°
2026-05-05 14:13 23.70722 90.34530 5986 ft 268 kts 235°
2026-05-05 14:13 23.69607 90.32841 6031 ft 279 kts 236°
2026-05-05 14:13 23.68464 90.31100 6032 ft 283 kts 236°
2026-05-05 14:14 23.67324 90.29363 6029 ft 281 kts 236°
2026-05-05 14:14 23.66191 90.27638 6024 ft 279 kts 236°
2026-05-05 14:14 23.65061 90.25920 6023 ft 278 kts 236°
2026-05-05 14:14 23.63935 90.24210 6019 ft 277 kts 236°
2026-05-05 14:15 23.62812 90.22505 6016 ft 277 kts 236°
2026-05-05 14:15 23.61722 90.20780 6011 ft 276 kts 239°
2026-05-05 14:15 23.60749 90.18985 6014 ft 275 kts 241°
2026-05-05 14:15 23.59795 90.17176 6018 ft 275 kts 241°
2026-05-05 14:16 23.58837 90.15373 6020 ft 275 kts 241°
2026-05-05 14:16 23.57863 90.13561 6011 ft 276 kts 240°
2026-05-05 14:16 23.56901 90.11780 6012 ft 277 kts 240°
2026-05-05 14:16 23.55919 90.09963 6032 ft 279 kts 240°
2026-05-05 14:17 23.54922 90.08123 6477 ft 284 kts 240°
2026-05-05 14:17 23.53924 90.06283 7333 ft 281 kts 240°
2026-05-05 14:17 23.52916 90.04423 8108 ft 282 kts 240°
2026-05-05 14:17 23.51911 90.02570 8837 ft 286 kts 240°
2026-05-05 14:18 23.50896 90.00700 9570 ft 288 kts 240°
2026-05-05 14:18 23.49890 89.98845 10188 ft 294 kts 240°
2026-05-05 14:18 23.48808 89.96850 10362 ft 317 kts 240°
2026-05-05 14:18 23.47650 89.94715 10530 ft 337 kts 240°
2026-05-05 14:19 23.46435 89.92478 10902 ft 348 kts 240°
2026-05-05 14:19 23.45195 89.90197 11477 ft 351 kts 240°
2026-05-05 14:19 23.43945 89.87900 12132 ft 353 kts 240°
2026-05-05 14:19 23.42688 89.85591 12743 ft 356 kts 240°
2026-05-05 14:20 23.41542 89.83165 13154 ft 365 kts 253°
2026-05-05 14:20 23.40974 89.80461 13740 ft 367 kts 259°
2026-05-05 14:20 23.40458 89.77738 14322 ft 367 kts 258°
2026-05-05 14:20 23.39923 89.75016 14901 ft 369 kts 258°
2026-05-05 14:21 23.39371 89.72287 15480 ft 370 kts 257°
2026-05-05 14:21 23.38806 89.69546 16051 ft 372 kts 257°
2026-05-05 14:21 23.38428 89.67726 16412 ft 373 kts 257°
2026-05-05 14:21 23.37485 89.64079 17121 ft 377 kts 244°
2026-05-05 14:22 23.36106 89.61649 17688 ft 378 kts 237°
2026-05-05 14:22 23.35136 89.60070 18059 ft 379 kts 237°
2026-05-05 14:22 23.33666 89.57676 18525 ft 382 kts 237°
2026-05-05 14:22 23.32196 89.55268 18996 ft 383 kts 237°
2026-05-05 14:23 23.30249 89.52057 19642 ft 384 kts 237°
2026-05-05 14:23 23.29258 89.50413 19962 ft 385 kts 238°
2026-05-05 14:23 23.27792 89.47976 20426 ft 386 kts 238°
2026-05-05 14:23 23.26321 89.45525 20883 ft 387 kts 238°
2026-05-05 14:24 23.24846 89.43067 21334 ft 389 kts 238°
2026-05-05 14:24 23.23371 89.40608 21774 ft 390 kts 238°
2026-05-05 14:24 23.21884 89.38130 22206 ft 391 kts 238°
2026-05-05 14:24 23.20394 89.35649 22630 ft 393 kts 238°
2026-05-05 14:25 23.18916 89.33188 23029 ft 394 kts 238°
2026-05-05 14:25 23.17413 89.30687 23429 ft 396 kts 238°
2026-05-05 14:25 23.15904 89.28177 23753 ft 397 kts 238°
2026-05-05 14:25 23.14390 89.25660 24068 ft 399 kts 238°
2026-05-05 14:26 23.12869 89.23134 24375 ft 400 kts 238°
2026-05-05 14:26 23.11339 89.20593 24713 ft 401 kts 238°
2026-05-05 14:26 23.09811 89.18057 25020 ft 402 kts 238°
2026-05-05 14:26 23.08271 89.15503 25231 ft 406 kts 238°
2026-05-05 14:27 23.06720 89.12930 25495 ft 408 kts 238°
2026-05-05 14:27 23.05163 89.10349 25810 ft 409 kts 238°
2026-05-05 14:27 23.03600 89.07760 26118 ft 410 kts 238°
2026-05-05 14:27 23.02037 89.05172 26387 ft 411 kts 238°
2026-05-05 14:28 23.00464 89.02570 26644 ft 413 kts 238°
2026-05-05 14:28 22.98902 88.99986 26906 ft 414 kts 238°
2026-05-05 14:28 22.97321 88.97370 27183 ft 416 kts 238°
2026-05-05 14:28 22.95729 88.94740 27435 ft 417 kts 238°
2026-05-05 14:29 22.94134 88.92104 27680 ft 419 kts 238°
2026-05-05 14:29 22.92532 88.89459 27914 ft 420 kts 238°
2026-05-05 14:29 22.90979 88.86768 28151 ft 421 kts 240°
2026-05-05 14:29 22.89470 88.84038 28397 ft 422 kts 240°
2026-05-05 14:30 22.87973 88.81296 28678 ft 422 kts 240°
2026-05-05 14:30 22.86474 88.78552 28925 ft 423 kts 240°
2026-05-05 14:30 22.84967 88.75811 29131 ft 424 kts 240°
2026-05-05 14:30 22.83445 88.73057 29332 ft 426 kts 240°
2026-05-05 14:31 22.81917 88.70302 29559 ft 427 kts 240°
2026-05-05 14:31 22.80388 88.67554 29880 ft 425 kts 240°
2026-05-05 14:31 22.78864 88.64816 30182 ft 423 kts 240°
2026-05-05 14:31 22.77347 88.62094 30445 ft 422 kts 240°
2026-05-05 14:32 22.75845 88.59399 30581 ft 425 kts 240°
2026-05-05 14:32 22.74309 88.56643 30699 ft 427 kts 240°
2026-05-05 14:32 22.72774 88.53889 30967 ft 426 kts 240°
2026-05-05 14:32 22.71248 88.51156 31291 ft 423 kts 240°
2026-05-05 14:33 22.69727 88.48431 31583 ft 421 kts 240°
2026-05-05 14:33 22.68102 88.45789 31832 ft 422 kts 234°
2026-05-05 14:33 22.66174 88.43399 32188 ft 421 kts 227°
2026-05-05 14:33 22.63963 88.41305 32478 ft 422 kts 223°
2026-05-05 14:34 22.61699 88.39278 32692 ft 422 kts 223°
2026-05-05 14:34 22.59428 88.37248 32884 ft 423 kts 223°
2026-05-05 14:34 22.57159 88.35216 33088 ft 423 kts 223°
2026-05-05 14:34 22.54922 88.33206 33329 ft 423 kts 223°
2026-05-05 14:35 22.52661 88.31168 33602 ft 422 kts 223°
2026-05-05 14:35 22.50414 88.29140 33845 ft 421 kts 223°
2026-05-05 14:35 22.45892 88.25050 33845 ft 424 kts 223°
2026-05-05 14:36 22.41382 88.20974 33848 ft 422 kts 223°
2026-05-05 14:36 22.36884 88.16912 33852 ft 421 kts 223°
2026-05-05 14:37 22.32394 88.12860 33850 ft 421 kts 223°
2026-05-05 14:37 22.27890 88.08799 33857 ft 421 kts 223°
2026-05-05 14:38 22.23393 88.04748 33856 ft 421 kts 223°
2026-05-05 14:38 22.18895 88.00701 33853 ft 422 kts 223°
2026-05-05 14:39 22.14412 87.96669 33855 ft 422 kts 223°
2026-05-05 14:39 22.09896 87.92613 33855 ft 422 kts 223°
2026-05-05 14:40 22.05372 87.88552 33855 ft 423 kts 223°
2026-05-05 14:40 22.00850 87.84497 33857 ft 423 kts 223°
2026-05-05 14:41 21.96320 87.80437 33857 ft 423 kts 223°
2026-05-05 14:41 21.91793 87.76384 33858 ft 423 kts 223°
2026-05-05 14:42 21.87294 87.72360 33858 ft 423 kts 223°
2026-05-05 14:42 21.82759 87.68306 33858 ft 423 kts 223°
2026-05-05 14:43 21.78222 87.64255 33843 ft 423 kts 223°
2026-05-05 14:43 21.73680 87.60202 33859 ft 423 kts 223°
2026-05-05 14:44 21.69146 87.56160 33861 ft 424 kts 223°
2026-05-05 14:44 21.64604 87.52115 33865 ft 424 kts 223°
2026-05-05 14:45 21.60091 87.48098 33865 ft 424 kts 223°
2026-05-05 14:45 21.55534 87.44046 33865 ft 425 kts 223°
2026-05-05 14:46 21.50982 87.40001 33869 ft 425 kts 223°
2026-05-05 14:46 21.46424 87.35955 33868 ft 425 kts 223°
2026-05-05 14:47 21.41858 87.31904 33866 ft 426 kts 223°
2026-05-05 14:47 21.37287 87.27853 33874 ft 426 kts 223°
2026-05-05 14:48 21.32705 87.23795 33866 ft 427 kts 223°
2026-05-05 14:48 21.28112 87.19731 33866 ft 428 kts 223°
2026-05-05 14:49 21.23515 87.15667 33871 ft 429 kts 223°
2026-05-05 14:49 21.18908 87.11598 33883 ft 429 kts 223°
2026-05-05 14:50 21.14294 87.07526 33881 ft 430 kts 223°
2026-05-05 14:50 21.09683 87.03459 33857 ft 430 kts 223°
2026-05-05 14:51 21.05090 86.99412 33870 ft 430 kts 223°
2026-05-05 14:51 21.00469 86.95344 33874 ft 430 kts 223°
2026-05-05 14:52 20.95844 86.91275 33883 ft 431 kts 223°
2026-05-05 14:52 20.91211 86.87202 33877 ft 431 kts 223°
2026-05-05 14:53 20.86570 86.83125 33872 ft 432 kts 223°
2026-05-05 14:53 20.81919 86.79043 33872 ft 432 kts 223°
2026-05-05 14:54 20.77281 86.74948 33864 ft 432 kts 223°
2026-05-05 14:54 20.72654 86.70852 33877 ft 432 kts 223°
2026-05-05 14:55 20.68024 86.66757 33878 ft 432 kts 223°
2026-05-05 14:55 20.63424 86.62694 33875 ft 432 kts 223°
2026-05-05 14:56 20.58798 86.58611 33877 ft 432 kts 223°
2026-05-05 14:56 20.54169 86.54530 33879 ft 431 kts 223°
2026-05-05 14:57 20.49539 86.50450 33878 ft 431 kts 223°
2026-05-05 14:57 20.44914 86.46383 33876 ft 431 kts 223°
2026-05-05 14:58 20.40276 86.42324 33874 ft 431 kts 223°
2026-05-05 14:58 20.35648 86.38276 33875 ft 430 kts 223°
2026-05-05 14:59 20.31030 86.34238 33876 ft 430 kts 223°
2026-05-05 14:59 20.26406 86.30197 33877 ft 429 kts 223°
2026-05-05 15:00 20.22569 86.26846 33876 ft 429 kts 223°
2026-05-05 15:00 20.17207 86.22166 33879 ft 428 kts 223°
2026-05-05 15:01 20.12601 86.18149 33881 ft 428 kts 223°
2026-05-05 15:01 20.07988 86.14125 33860 ft 428 kts 223°
2026-05-05 15:02 20.03380 86.10100 33872 ft 429 kts 223°
2026-05-05 15:02 19.98751 86.06062 33880 ft 431 kts 223°
2026-05-05 15:03 19.94108 86.02007 33885 ft 433 kts 223°
2026-05-05 15:03 19.89442 85.97932 33880 ft 435 kts 223°
2026-05-05 15:04 19.84755 85.93841 33881 ft 436 kts 222°
2026-05-05 15:04 19.80062 85.89749 33883 ft 437 kts 222°
2026-05-05 15:05 19.73008 85.83604 33866 ft 437 kts 222°
2026-05-05 15:06 19.68305 85.79512 33877 ft 437 kts 222°
2026-05-05 15:06 19.63631 85.75447 33879 ft 437 kts 222°
2026-05-05 15:07 19.58918 85.71352 33877 ft 437 kts 222°
2026-05-05 15:07 19.54208 85.67262 33880 ft 437 kts 222°
2026-05-05 15:08 19.49496 85.63174 33879 ft 438 kts 222°
2026-05-05 15:08 19.44779 85.59085 33884 ft 438 kts 222°
2026-05-05 15:09 19.40067 85.55002 33869 ft 437 kts 222°
2026-05-05 15:09 19.36150 85.51611 33883 ft 438 kts 222°
2026-05-05 15:10 19.30657 85.46858 33886 ft 439 kts 221°
2026-05-05 15:10 19.26055 85.42620 33887 ft 438 kts 228°
2026-05-05 15:11 19.22604 85.38682 33888 ft 439 kts 230°
2026-05-05 15:11 19.18473 85.33919 33886 ft 440 kts 229°
2026-05-05 15:12 19.14286 85.29192 33890 ft 440 kts 229°
2026-05-05 15:12 19.10201 85.24377 33881 ft 439 kts 233°
2026-05-05 15:13 19.06501 85.19238 33873 ft 439 kts 235°
2026-05-05 15:13 19.02839 85.14078 33880 ft 439 kts 234°
2026-05-05 15:14 18.99142 85.08947 33887 ft 439 kts 234°
2026-05-05 15:14 18.95422 85.03825 33890 ft 439 kts 234°
2026-05-05 15:15 18.91704 84.98713 33884 ft 439 kts 234°
2026-05-05 15:15 18.87990 84.93607 33887 ft 438 kts 234°
2026-05-05 15:16 18.84273 84.88502 33884 ft 438 kts 234°
2026-05-05 15:16 18.80585 84.83395 33886 ft 437 kts 234°
2026-05-05 15:17 18.76927 84.78265 33879 ft 437 kts 234°
2026-05-05 15:17 18.73300 84.73180 33879 ft 436 kts 234°
2026-05-05 15:18 18.69645 84.68068 33878 ft 436 kts 234°
2026-05-05 15:18 18.66029 84.63019 33886 ft 436 kts 234°
2026-05-05 15:19 18.62419 84.57982 33894 ft 435 kts 234°
2026-05-05 15:19 18.60594 84.55438 33781 ft 430 kts 234°
2026-05-05 15:19 18.58798 84.52936 33859 ft 427 kts 234°
2026-05-05 15:20 18.55190 84.47909 33894 ft 434 kts 234°
2026-05-05 15:20 18.51519 84.42797 33894 ft 439 kts 234°
2026-05-05 15:21 18.47818 84.37651 33890 ft 441 kts 234°
2026-05-05 15:21 18.44129 84.32526 33894 ft 442 kts 234°
2026-05-05 15:22 18.40414 84.27367 33888 ft 442 kts 234°
2026-05-05 15:22 18.36701 84.22215 33898 ft 441 kts 234°
2026-05-05 15:23 18.32993 84.17073 33887 ft 440 kts 234°
2026-05-05 15:23 18.29297 84.11953 33889 ft 438 kts 234°
2026-05-05 15:24 18.25626 84.06845 33892 ft 436 kts 234°
2026-05-05 15:24 18.21986 84.01759 33890 ft 434 kts 234°
2026-05-05 15:25 18.18358 83.96693 33892 ft 433 kts 234°
2026-05-05 15:25 18.14736 83.91641 33886 ft 432 kts 234°
2026-05-05 15:26 18.11117 83.86598 33888 ft 432 kts 234°
2026-05-05 15:26 18.07499 83.81562 33888 ft 432 kts 234°
2026-05-05 15:27 18.03901 83.76556 33884 ft 432 kts 234°
2026-05-05 15:27 18.00263 83.71499 33884 ft 433 kts 234°
2026-05-05 15:28 17.96622 83.66443 33874 ft 435 kts 234°
2026-05-05 15:28 17.92964 83.61366 33884 ft 436 kts 234°
2026-05-05 15:29 17.89291 83.56273 33882 ft 438 kts 234°
2026-05-05 15:29 17.85605 83.51164 33874 ft 440 kts 234°
2026-05-05 15:30 17.81928 83.46073 33880 ft 441 kts 234°
2026-05-05 15:30 17.78218 83.40940 33880 ft 442 kts 234°
2026-05-05 15:31 17.74498 83.35797 33881 ft 442 kts 233°
2026-05-05 15:31 17.70778 83.30656 33884 ft 442 kts 233°
2026-05-05 15:32 17.67094 83.25495 33881 ft 442 kts 237°
2026-05-05 15:32 17.64289 83.19787 33887 ft 440 kts 245°
2026-05-05 15:33 17.61693 83.13977 33875 ft 440 kts 245°
2026-05-05 15:33 17.59080 83.08189 33878 ft 439 kts 245°
2026-05-05 15:34 17.56447 83.02413 33871 ft 439 kts 245°
2026-05-05 15:34 17.53802 82.96633 33871 ft 440 kts 245°
2026-05-05 15:35 17.51157 82.90862 33871 ft 440 kts 245°
2026-05-05 15:35 17.48511 82.85090 33876 ft 440 kts 245°
2026-05-05 15:36 17.45855 82.79303 33869 ft 440 kts 245°
2026-05-05 15:36 17.43216 82.73558 33875 ft 440 kts 245°
2026-05-05 15:37 17.40557 82.67775 33874 ft 441 kts 245°
2026-05-05 15:37 17.37896 82.61991 33874 ft 441 kts 245°
2026-05-05 15:38 17.35237 82.56216 33871 ft 440 kts 245°
2026-05-05 15:38 17.32575 82.50443 33871 ft 440 kts 245°
2026-05-05 15:39 17.29913 82.44673 33874 ft 440 kts 245°
2026-05-05 15:39 17.27251 82.38909 33869 ft 440 kts 245°
2026-05-05 15:40 17.24605 82.33183 33867 ft 439 kts 244°
2026-05-05 15:40 17.21946 82.27434 33870 ft 439 kts 244°
2026-05-05 15:41 17.19270 82.21653 33871 ft 439 kts 244°
2026-05-05 15:41 17.16630 82.15954 33871 ft 438 kts 244°
2026-05-05 15:42 17.13962 82.10224 33874 ft 438 kts 244°
2026-05-05 15:42 17.11270 82.04516 33877 ft 438 kts 244°
2026-05-05 15:43 17.08573 81.98805 33881 ft 438 kts 244°
2026-05-05 15:43 17.05876 81.93091 33882 ft 438 kts 244°
2026-05-05 15:44 17.03184 81.87387 33884 ft 438 kts 244°
2026-05-05 15:44 17.00488 81.81679 33884 ft 438 kts 244°
2026-05-05 15:45 16.97790 81.75972 33877 ft 438 kts 244°
2026-05-05 15:45 16.95090 81.70264 33878 ft 438 kts 244°
2026-05-05 15:46 16.92386 81.64555 33871 ft 439 kts 244°
2026-05-05 15:46 16.89677 81.58840 33863 ft 439 kts 244°
2026-05-05 15:47 16.86985 81.53165 33849 ft 439 kts 244°
2026-05-05 15:47 16.84273 81.47453 33854 ft 439 kts 244°
2026-05-05 15:48 16.81556 81.41737 33855 ft 439 kts 244°
2026-05-05 15:48 16.78837 81.36020 33854 ft 440 kts 244°
2026-05-05 15:49 16.76113 81.30297 33858 ft 440 kts 244°
2026-05-05 15:49 16.73385 81.24572 33852 ft 440 kts 244°
2026-05-05 15:50 16.70660 81.18857 33851 ft 440 kts 244°
2026-05-05 15:50 16.67932 81.13140 33854 ft 440 kts 244°
2026-05-05 15:51 16.65215 81.07453 33853 ft 440 kts 244°
2026-05-05 15:51 16.62481 81.01733 33855 ft 441 kts 243°
2026-05-05 15:52 16.59746 80.96016 33856 ft 441 kts 243°
2026-05-05 15:52 16.57010 80.90300 33858 ft 441 kts 243°
2026-05-05 15:53 16.54272 80.84588 33859 ft 441 kts 243°
2026-05-05 15:53 16.51093 80.79139 33864 ft 441 kts 236°
2026-05-05 15:54 16.47617 80.73874 33849 ft 441 kts 236°
2026-05-05 15:54 16.44137 80.68599 33858 ft 441 kts 236°
2026-05-05 15:55 16.40684 80.63297 33854 ft 442 kts 236°
2026-05-05 15:55 16.37242 80.57980 33853 ft 443 kts 236°
2026-05-05 15:56 16.33820 80.52691 33849 ft 443 kts 236°
2026-05-05 15:56 16.30372 80.47364 33853 ft 444 kts 236°
2026-05-05 15:57 16.26916 80.42032 33858 ft 444 kts 236°
2026-05-05 15:57 16.24041 80.37599 33858 ft 444 kts 236°
2026-05-05 15:58 16.20581 80.32269 33857 ft 444 kts 236°
2026-05-05 15:58 16.17117 80.26937 33863 ft 444 kts 236°
2026-05-05 15:59 16.13651 80.21604 33863 ft 444 kts 236°
2026-05-05 15:59 16.10190 80.16283 33861 ft 444 kts 236°
2026-05-05 16:00 16.06748 80.10995 33872 ft 444 kts 236°
2026-05-05 16:00 16.03280 80.05673 33876 ft 444 kts 236°
2026-05-05 16:01 15.99814 80.00356 33880 ft 445 kts 236°
2026-05-05 16:01 15.96339 79.95028 33877 ft 445 kts 236°
2026-05-05 16:02 15.92861 79.89701 33878 ft 446 kts 236°
2026-05-05 16:02 15.89376 79.84368 33874 ft 446 kts 236°
2026-05-05 16:03 15.85889 79.79033 33871 ft 446 kts 236°
2026-05-05 16:03 15.82401 79.73702 33874 ft 446 kts 236°
2026-05-05 16:04 15.78910 79.68371 33872 ft 447 kts 236°
2026-05-05 16:04 15.75414 79.63034 33872 ft 447 kts 236°
2026-05-05 16:05 15.71913 79.57696 33869 ft 447 kts 236°
2026-05-05 16:05 15.68415 79.52363 33870 ft 447 kts 236°
2026-05-05 16:06 15.64931 79.47058 33866 ft 447 kts 236°
2026-05-05 16:06 15.61427 79.41724 33866 ft 447 kts 236°
2026-05-05 16:07 15.57920 79.36390 33872 ft 447 kts 236°
2026-05-05 16:07 15.54412 79.31058 33870 ft 447 kts 236°
2026-05-05 16:08 15.50905 79.25729 33869 ft 447 kts 236°
2026-05-05 16:08 15.47396 79.20403 33866 ft 447 kts 236°
2026-05-05 16:09 15.43887 79.15074 33869 ft 447 kts 236°
2026-05-05 16:09 15.40381 79.09745 33867 ft 447 kts 236°
2026-05-05 16:10 15.36878 79.04423 33862 ft 447 kts 235°
2026-05-05 16:10 15.33374 78.99102 33861 ft 447 kts 235°
2026-05-05 16:11 15.29867 78.93781 33864 ft 447 kts 235°
2026-05-05 16:12 15.22872 78.83179 33865 ft 447 kts 235°
2026-05-05 16:13 15.14100 78.69901 33868 ft 447 kts 235°
2026-05-05 16:13 15.10300 78.64832 33868 ft 446 kts 223°
2026-05-05 16:14 15.05268 78.61099 33861 ft 447 kts 206°
2026-05-05 16:14 14.99619 78.58407 33867 ft 447 kts 205°
2026-05-05 16:15 14.88299 78.53061 33870 ft 447 kts 205°
2026-05-05 16:16 14.76992 78.47623 33868 ft 448 kts 205°
2026-05-05 16:17 14.68544 78.43567 33868 ft 448 kts 205°
2026-05-05 16:18 14.60048 78.39501 33876 ft 449 kts 205°
2026-05-05 16:19 14.51543 78.35437 33883 ft 449 kts 205°
2026-05-05 16:19 14.43105 78.31406 33866 ft 436 kts 205°
2026-05-05 16:20 14.32131 78.26167 33466 ft 430 kts 205°
2026-05-05 16:21 14.26753 78.23606 32689 ft 422 kts 205°
2026-05-05 16:22 14.18787 78.19905 31500 ft 415 kts 204°
2026-05-05 16:22 14.13561 78.17414 30701 ft 412 kts 206°
2026-05-05 16:23 14.08468 78.14760 29899 ft 409 kts 207°
2026-05-05 16:23 14.05937 78.13426 29476 ft 407 kts 207°
2026-05-05 16:23 14.00928 78.10802 28632 ft 401 kts 207°
2026-05-05 16:24 13.98477 78.09526 28240 ft 399 kts 207°
2026-05-05 16:24 13.96005 78.08243 27837 ft 396 kts 207°
2026-05-05 16:24 13.91116 78.05712 27067 ft 391 kts 207°
2026-05-05 16:25 13.88693 78.04458 26672 ft 389 kts 207°
2026-05-05 16:25 13.83879 78.01969 25903 ft 385 kts 207°
2026-05-05 16:25 13.81490 78.00734 25502 ft 383 kts 207°
2026-05-05 16:26 13.76739 77.98279 24731 ft 381 kts 207°
2026-05-05 16:26 13.72016 77.95839 23944 ft 379 kts 208°
2026-05-05 16:27 13.69661 77.94623 23558 ft 378 kts 208°
2026-05-05 16:27 13.67314 77.93412 23110 ft 376 kts 208°
2026-05-05 16:27 13.64983 77.92208 22700 ft 374 kts 208°
2026-05-05 16:27 13.62665 77.91012 22313 ft 371 kts 208°
2026-05-05 16:28 13.60366 77.89826 21932 ft 368 kts 208°
2026-05-05 16:28 13.58083 77.88649 21547 ft 366 kts 208°
2026-05-05 16:28 13.55812 77.87477 21170 ft 364 kts 208°
2026-05-05 16:28 13.53577 77.86325 20796 ft 362 kts 207°
2026-05-05 16:29 13.51330 77.85166 20429 ft 360 kts 207°
2026-05-05 16:29 13.49091 77.84012 20058 ft 358 kts 207°
2026-05-05 16:29 13.46867 77.82866 19698 ft 357 kts 207°
2026-05-05 16:29 13.44645 77.81721 19318 ft 357 kts 207°
2026-05-05 16:30 13.42432 77.80581 18966 ft 355 kts 207°
2026-05-05 16:30 13.40220 77.79443 18599 ft 355 kts 207°
2026-05-05 16:30 13.38014 77.78306 18226 ft 354 kts 207°
2026-05-05 16:30 13.35812 77.77173 17837 ft 353 kts 207°
2026-05-05 16:31 13.33621 77.76045 17464 ft 351 kts 207°
2026-05-05 16:31 13.31442 77.74924 17099 ft 349 kts 207°
2026-05-05 16:31 13.29304 77.73824 16749 ft 347 kts 207°
2026-05-05 16:31 13.27152 77.72716 16400 ft 345 kts 207°
2026-05-05 16:32 13.25009 77.71614 16051 ft 344 kts 207°
2026-05-05 16:32 13.22873 77.70517 15703 ft 342 kts 207°
2026-05-05 16:32 13.20667 77.69612 15344 ft 342 kts 194°
2026-05-05 16:32 13.18322 77.69277 15010 ft 341 kts 184°
2026-05-05 16:33 13.15953 77.69156 14650 ft 340 kts 182°
2026-05-05 16:33 13.13586 77.69059 14297 ft 340 kts 182°
2026-05-05 16:33 13.11214 77.68957 13947 ft 340 kts 182°
2026-05-05 16:33 13.08885 77.68845 13567 ft 340 kts 183°
2026-05-05 16:34 13.06530 77.68724 13204 ft 339 kts 183°
2026-05-05 16:34 13.04181 77.68598 12846 ft 337 kts 183°
2026-05-05 16:34 13.01842 77.68472 12493 ft 336 kts 183°
2026-05-05 16:34 12.99523 77.68596 12119 ft 334 kts 163°
2026-05-05 16:35 12.97491 77.69666 11799 ft 328 kts 137°
2026-05-05 16:35 12.96108 77.71452 11679 ft 314 kts 114°
2026-05-05 16:35 12.95438 77.73539 11372 ft 309 kts 94°
2026-05-05 16:35 12.95506 77.75712 11004 ft 305 kts 78°
2026-05-05 16:36 12.95943 77.77850 10595 ft 307 kts 76°
2026-05-05 16:36 12.95984 77.80016 10386 ft 307 kts 104°
2026-05-05 16:36 12.94915 77.81875 10248 ft 304 kts 132°
2026-05-05 16:36 12.93455 77.83401 10138 ft 296 kts 131°
2026-05-05 16:37 12.92063 77.84931 9949 ft 292 kts 130°
2026-05-05 16:37 12.90733 77.86511 9374 ft 298 kts 118°
2026-05-05 16:37 12.90262 77.88467 9047 ft 278 kts 81°
2026-05-05 16:37 12.90927 77.90192 8911 ft 252 kts 47°
2026-05-05 16:38 12.92331 77.91074 8765 ft 231 kts 10°
2026-05-05 16:38 12.93834 77.90838 8621 ft 216 kts 330°
2026-05-05 16:38 12.94814 77.89691 8096 ft 223 kts 295°
2026-05-05 16:38 12.95304 77.88169 7464 ft 226 kts 288°
2026-05-05 16:39 12.95667 77.86591 6812 ft 229 kts 287°
2026-05-05 16:39 12.96025 77.85002 6230 ft 228 kts 284°
2026-05-05 16:39 12.96260 77.83412 5679 ft 224 kts 275°
2026-05-05 16:39 12.96305 77.81875 5372 ft 208 kts 271°
2026-05-05 16:40 12.96250 77.80438 5106 ft 195 kts 266°
2026-05-05 16:40 12.96136 77.79091 4876 ft 183 kts 265°
2026-05-05 16:40 12.96019 77.77818 4695 ft 175 kts 264°
2026-05-05 16:40 12.95903 77.76558 4432 ft 179 kts 264°
2026-05-05 16:41 12.95789 77.75295 4216 ft 178 kts 264°
2026-05-05 16:41 12.95675 77.74045 3969 ft 173 kts 264°
2026-05-05 16:41 12.95565 77.72828 3779 ft 170 kts 264°
2026-05-05 16:41 12.95456 77.71619 3530 ft 168 kts 263°
2026-05-05 16:42 12.95348 77.70437 3309 ft 165 kts 263°
2026-05-05 16:42 12.95239 77.69268 3100 ft 164 kts 262°
2026-05-05 16:42 12.95123 77.68132 2939 ft 156 kts 264°
2026-05-05 16:42 12.95032 77.67127 2926 ft 121 kts 264°
2026-05-05 16:43 12.94970 77.66424 2918 ft 77 kts 264°
2026-05-05 16:43 12.94936 77.66031 2918 ft 34 kts 265°
2026-05-05 16:43 12.94957 77.65924 2918 ft 11 kts 351°
2026-05-05 16:43 12.95032 77.65916 2916 ft 11 kts 355°
2026-05-05 16:44 12.95106 77.65909 2916 ft 10 kts 354°
2026-05-05 16:44 12.95177 77.65906 2915 ft 10 kts 20°
2026-05-05 16:44 12.95203 77.65968 2915 ft 10 kts 92°
2026-05-05 16:44 12.95205 77.66037 2919 ft 10 kts 84°
2026-05-05 16:45 12.95212 77.66105 2919 ft 9 kts 84°
2026-05-05 16:45 12.95216 77.66148 2919 ft 9 kts 84°
2026-05-05 16:45 12.95222 77.66213 2920 ft 9 kts 85°
2026-05-05 16:45 12.95227 77.66276 2920 ft 9 kts 84°
2026-05-05 16:46 12.95279 77.66301 2920 ft 10 kts 354°
2026-05-05 16:46 12.95341 77.66297 2920 ft 6 kts 359°
2026-05-05 16:46 12.95343 77.66297 2920 ft 0 kts 359°